Regional Weather Roundup
Issued by NWS Albany, NY

Home | Current Version | Previous Version | Text Only | Print | Product List | Glossary On
Versions: 1 2 3 4 5 6 7 8 9 10 11 12 13 14 15 16 17 18 19 20 21 22 23 24 25 26 27 28
000
ASUS41 KALY 181810
RWRALY

NEW YORK STATE HOURLY WEATHER ROUNDUP
NATIONAL WEATHER SERVICE ALBANY NY
200 PM EDT FRI APR 18 2014

NOTE: "FAIR" INDICATES FEW OR NO CLOUDS BELOW 12,000 FEET WITH NO
SIGNIFICANT WEATHER AND/OR NO OBSTRUCTIONS TO VISIBILITY.

NYZ032-033-038>043-046>054-057>066-NYZ062>081-181900-
EAST


CITY           SKY/WX    TMP DP  RH WIND       PRES   REMARKS
ALBANY         CLOUDY    48  22  35 S10G20    30.39F
GLENS FALLS    PTSUNNY   53  23  31 S14G20    30.36F
POUGHKEEPSIE   CLOUDY    48  27  44 VRB3      30.42F
NEWBURGH       PTSUNNY   46  28  49 VRB6      30.44F
MONTGOMERY     CLOUDY    47  27  45 W5        30.42F
WHITE PLAINS   CLOUDY    42  30  62 SE8       30.43F
ISLIP          CLOUDY    47  30  51 VRB5      30.43F
NEW YORK CITY  CLOUDY    43  28  55 NE7       30.46F
CENTRAL PARK   CLOUDY    47  29  49 VRB6      30.47F
$$

NYZ005>009-017-018-044>046-055-056-181900-
CENTRAL


CITY           SKY/WX    TMP DP  RH WIND       PRES   REMARKS
FULTON         CLOUDY    54  32  43 VRB5      30.28F
SYRACUSE       CLOUDY    56  32  40 S7        30.28F
ROME           CLOUDY    52  30  43 E12       30.32F
ELMIRA         CLOUDY    56  30  37 S9        30.28F
BINGHAMTON     CLOUDY    48  30  49 S8        30.30F
MONTICELLO     CLOUDY    45  23  42 S8        30.39F
$$

NYZ026>034-041>043-181900-
NORTH


CITY           SKY/WX    TMP DP  RH WIND       PRES   REMARKS
WATERTOWN      CLOUDY    56  30  37 SW14      30.27S
FORT DRUM      NOT AVBL
MASSENA        CLOUDY    53  29  39 E8        30.27F
SARANAC LAKE   CLOUDY    51  21  30 SW13      30.23F
PLATTSBURGH    PTSUNNY   49  17  28 SE18G28   30.29F
$$

NYZ001>004-010>016-019>021-181900-
WEST


CITY           SKY/WX    TMP DP  RH WIND       PRES   REMARKS
NIAGARA FALLS  CLOUDY    57  35  43 VRB5      30.23F
BUFFALO        CLOUDY    57  31  37 SW14      30.23F
DUNKIRK        MOSUNNY   53  30  41 W10G23    30.26S
JAMESTOWN      MOSUNNY   57  34  41 SW6       30.24F
WELLSVILLE     PTSUNNY   59  28  30 S8        30.25F
ROCHESTER      PTSUNNY   61  35  37 VRB3      30.23F
PENN YAN       CLOUDY    58  32  37 S13       30.25F
$$

             KEY
       WCI = WIND CHILL INDEX
       VSB = VISIBILITY
       HX  = HEAT INDEX
$$



USA.gov is the U.S. government's official web portal to all federal, state and local government web resources and services.